Hourly Data Report for October 04, 2015

All times are specified in Local Standard Time (LST). Add 1 hour to adjust for Daylight Saving Time where and when it is observed.

KUGLUKTUK A
NUNAVUT

67°49'00.000" N
115°08'38.000" W
22.60 m
2300903
71938
YCO

Download Data

Hourly Data (October 2015)
Hourly Data Report for October 4, 2015
Temp Definition
°C
Dew Point Temp Definition
°C
Rel Hum Definition
%
Wind Dir Definition
10's deg

Wind Spd Definition
km/h
Visibility Definition
km
Stn Press Definition
kPa
Hmdx Definition


Wind Chill Definition


Weather Definition


TIME
00:00 Legend Double Dagger 1.5 0.2 91 21 12 24.1 101.76     Drizzle
01:00 Legend Double Dagger 1.7 -0.2 87 24 9 24.1 101.72     LegendNANA
02:00 Legend Double Dagger 2.3 -1.0 79 22 17 24.1 101.68     Cloudy
03:00 Legend Double Dagger 2.1 -1.3 78 22 13 24.1 101.65     LegendNANA
04:00 Legend Double Dagger 2.2 -1.4 77 22 11 24.1 101.60     LegendNANA
05:00 Legend Double Dagger 2.2 -1.8 75 22 14 24.1 101.57     Cloudy
06:00 Legend Double Dagger 1.5 -1.6 80 19 9 24.1 101.52     LegendNANA
07:00 Legend Double Dagger 2.0 -2.0 75 20 12 24.1 101.46     LegendNANA
08:00 Legend Double Dagger 2.9 -2.2 69 21 11 24.1 101.40     Cloudy
09:00 Legend Double Dagger 3.1 -2.0 69 19 10 24.1 101.35     LegendNANA
10:00 Legend Double Dagger 4.3 -2.3 62 21 12 24.1 101.28     LegendNANA
11:00 Legend Double Dagger 5.0 -2.8 57 22 22 24.1 101.24     Cloudy
12:00 Legend Double Dagger 5.4 -2.2 58 22 23 24.1 101.21     LegendNANA
13:00 Legend Double Dagger 5.5 -1.9 59 22 26 24.1 101.18     LegendNANA
14:00 Legend Double Dagger 5.9 -1.3 60 22 21 24.1 101.15     Cloudy
15:00 Legend Double Dagger 6.0 -1.9 57 26 23 24.1 101.12     LegendNANA
16:00 Legend Double Dagger 5.2 -1.7 61 24 15 24.1 101.10     LegendNANA
17:00 Legend Double Dagger 4.4 -1.2 67 24 14 24.1 101.08     Cloudy
18:00 Legend Double Dagger 3.9 -1.1 70 26 16 24.1 101.04     LegendNANA
19:00 Legend Double Dagger 2.6 -1.6 74 23 16 24.1 101.03     LegendNANA
20:00 Legend Double Dagger 2.2 -1.6 76 24 17 24.1 101.01     Mostly Cloudy
21:00 Legend Double Dagger 2.5 -0.6 80 24 18 16.1 100.98     LegendNANA
22:00 Legend Double Dagger 2.0 -0.3 85 23 13 16.1 100.97     Rain
23:00 Legend Double Dagger 1.6 0.1 90 23 14 24.1 100.94     Rain

Notes on Data Quality.

Legend

  • E = Estimated
  • M = Missing
  • NA = Not Available
  • ‡ = Partner data that is not subject to review by the National Climate Archives
Date modified: